Weather History for Concord, CA

Change the Weather History Date:

Monday, July 1, 2013

  Actual Average Record
Temperature  
Mean Temperature 82 °F 72 °F  
Max Temperature 101 °F 86 °F 101 °F (2013)
Min Temperature 63 °F 58 °F 54 °F (2010)
Degree Days  
Heating Degree Days 0    
Month to date heating degree days 0  
Since 1 June heating degree days 11  
Since 1 July heating degree days 0  
Cooling Degree Days 17    
Month to date cooling degree days 17  
Year to date cooling degree days 276  
Since 1 June cooling degree days 184  
Growing Degree Days 32 (Base 50)    
Moisture  
Dew Point 56 °F    
Average Humidity 53    
Maximum Humidity 84    
Minimum Humidity 21    
Precipitation  
Precipitation 0.00 in - 0.00 in (2014)
Month to date precipitation 0.00  
Year to date precipitation 2.06  
Since 1 July precipitation 0.00  
Sea Level Pressure  
Sea Level Pressure 29.76 in    
Wind  
Wind Speed 5 mph (NW)    
Max Wind Speed 15 mph    
Max Gust Speed 18 mph    
Visibility 10 miles    
Events      
T = Trace of Precipitation, MM = Missing Value Source: NWS Daily Summary

Daily Weather History Graph

Daily Weather History Graph

Search for Another Location

Airport:

Trip Planner

Search our weather history database for the weather conditions in past years. The results will help you decide how hot, cold, wet, or windy it might be!

Date:

Astronomy

Jul. 01, 2013 Rise Set
Actual Time 5:49 AM PDT 8:34 PM PDT
Civil Twilight 5:18 AM PDT 9:05 PM PDT
Nautical Twilight 4:39 AM PDT 9:45 PM PDT
Astronomical Twilight 3:54 AM PDT 10:29 PM PDT
Moon 1:18 AM PDT (7/1) 2:58 PM PDT (7/1)
Length of Visible Light 15h 47m
Length of Day
14h 45m
Waning Crescent, 34% of the Moon is Illuminated
Jul 1
Waning Crescent
Jul 8
New
Jul 15
First Quarter
Jul 22
Full
Jul 29
Last Quarter

Hourly Weather History & Observations

Time (PDT) Temp. Heat Index Dew Point Humidity Pressure Visibility Wind Dir Wind Speed Gust Speed Precip Events Conditions
12:53 AM 66.0 °F - 57.0 °F 73% 29.74 in 10.0 mi West 4.6 mph - N/A   Clear
1:53 AM 63.0 °F - 57.0 °F 81% 29.74 in 10.0 mi Calm Calm - N/A   Clear
2:53 AM 66.0 °F - 54.0 °F 65% 29.75 in 10.0 mi SW 3.5 mph - N/A   Clear
3:53 AM 63.0 °F - 55.9 °F 78% 29.75 in 10.0 mi West 3.5 mph - N/A   Clear
4:53 AM 63.0 °F - 55.9 °F 78% 29.76 in 10.0 mi Calm Calm - N/A   Clear
5:53 AM 63.0 °F - 57.9 °F 84% 29.76 in 10.0 mi NW 4.6 mph - N/A   Clear
6:53 AM 63.0 °F - 57.9 °F 84% 29.77 in 10.0 mi Calm Calm - N/A   Clear
7:53 AM 68.0 °F - 57.9 °F 70% 29.78 in 10.0 mi Calm Calm - N/A   Partly Cloudy
8:53 AM 72.0 °F - 57.9 °F 61% 29.78 in 10.0 mi NW 4.6 mph - N/A   Clear
9:53 AM 78.1 °F - 57.0 °F 48% 29.78 in 10.0 mi Calm Calm - N/A   Clear
10:53 AM 84.0 °F 83.3 °F 57.0 °F 40% 29.78 in 10.0 mi Calm Calm - N/A   Clear
11:53 AM 89.1 °F 87.7 °F 57.0 °F 34% 29.77 in 10.0 mi NW 9.2 mph - N/A   Clear
12:53 PM 91.9 °F 90.6 °F 57.0 °F 31% 29.77 in 10.0 mi NNW 10.4 mph - N/A   Clear
1:53 PM 95.0 °F 93.4 °F 55.9 °F 27% 29.76 in 10.0 mi NNW 11.5 mph - N/A   Clear
2:53 PM 100.0 °F 97.9 °F 53.1 °F 21% 29.75 in 10.0 mi WNW 12.7 mph - N/A   Clear
3:53 PM 99.0 °F - 51.1 °F 20% 29.74 in 10.0 mi WNW 11.5 mph - N/A   Clear
4:53 PM 99.0 °F 96.5 °F 53.1 °F 21% 29.74 in 10.0 mi West 6.9 mph - N/A   Clear
5:53 PM 98.1 °F 96.1 °F 54.0 °F 23% 29.73 in 10.0 mi WNW 9.2 mph - N/A   Clear
6:53 PM 95.0 °F 92.7 °F 54.0 °F 25% 29.73 in 10.0 mi NW 11.5 mph - N/A   Clear
7:53 PM 86.0 °F 85.0 °F 57.9 °F 38% 29.75 in 10.0 mi NNW 3.5 mph - N/A   Clear
8:53 PM 84.0 °F 83.3 °F 57.0 °F 40% 29.75 in 10.0 mi Calm Calm - N/A   Mostly Cloudy
9:53 PM 75.9 °F - 59.0 °F 56% 29.76 in 10.0 mi NNW 4.6 mph - N/A   Clear
10:53 PM 73.9 °F - 57.9 °F 57% 29.77 in 10.0 mi North 5.8 mph - N/A   Clear
11:53 PM 72.0 °F - 57.9 °F 61% 29.78 in 10.0 mi NW 6.9 mph - N/A   Clear